Vertical_Velocity
-2 -2 -1 -3 -2 -5 -2 -5 -3 -3 -8 -5 -3 -1 -3 0 -1 4 3 4 4 11 18 9 14 2 0 -0 -1 -2 -1 -1 3 -5 3 -2 -1 -2 -2 1 -1 1 -1
-2 -1 -1 -2 -1 -3 -2 -3 -3 -0 -4 -5 -5 -7 -0 2 1 1 5 2 5 -10 4 8 4 6 7 6 1 0 -4 -7 0 -9 -9 -16 -9 1 6 6 1 4 3
-2 -2 -1 -2 -2 -2 -1 -1 -4 -3 -3 -1 -4 -2 -1 0 1 -0 -1 8 7 4 36 27 9 5 3 3 -3 -0 -2 -7 1 2 -2 -10 -21 -3 4 2 3 2 -0
-3 -3 -4 -2 -2 -2 -1 -3 -1 -1 -1 -4 -2 -4 -2 3 -1 4 1 -4 5 13 9 4 3 4 1 2 1 -0 0 -2 -5 4 7 1 5 -12 -22 -2 -5 1 -1
-2 -1 -2 -2 -2 -2 -0 -3 -5 -4 -5 -1 -3 -3 -6 -2 -1 -1 13 16 3 6 14 3 -5 -7 -3 3 -7 -2 -0 -0 -11 -1 6 1 -2 3 0 -19 -4 -8 1
-3 -2 -2 -2 -1 -1 -3 -3 -3 -3 -1 -1 1 -2 -1 -3 -3 -2 4 8 -0 -6 -4 12 8 6 -1 -6 -1 -2 -4 -3 -5 -4 1 6 -3 -2 4 1 -2 -5 -5
-3 -1 -1 -1 -4 -4 -1 -3 -2 -3 -3 -0 -4 -5 -4 -2 -3 -5 4 3 9 5 4 -1 -3 -7 -0 -4 2 -2 -4 -1 -2 -7 -1 2 -4 -5 0 -1 1 -7 -2
-4 -5 -3 -3 -1 -2 -3 -4 -5 -5 -4 -1 -1 -1 -0 -1 -0 -1 -5 -3 -4 -5 -1 -1 -0 2 1 -1 -3 2 1 -7 -1 -1 -5 8 19 -6 -3 -5 15 32 -0
-3 -1 -1 -2 -3 -5 -7 -7 -6 -5 -3 -2 -1 1 -3 -4 -2 0 -0 -0 -2 -2 -2 -3 12 5 3 2 1 -5 -5 -1 0 -2 1 2 5 3 10 -1 19 -2 11
-2 -1 -1 -6 -3 -2 -2 -1 -2 -3 -2 -1 -1 0 1 2 1 -0 0 -1 -4 -2 -2 -2 -5 2 2 2 2 -0 -4 -7 -7 -3 -7 4 5 -1 -1 -3 27 6 -14
-1 -3 -5 -4 -2 -0 -1 -3 -4 -2 -1 1 2 1 -0 0 1 1 2 1 3 3 3 2 1 0 1 1 -1 -2 -3 -0 2 3 4 1 -8 1 6 1 9 1 -7
-1 -2 -2 -2 -2 -3 -3 -1 -1 -0 0 1 1 0 1 0 -1 -1 -0 1 1 -1 -1 -2 -2 -2 -3 -1 -3 -1 -1 -1 -1 -1 -2 -1 0 1 0 -5 -7 -2 5
-3 -3 -3 -4 -4 -4 -2 -2 -1 1 2 1 0 -1 -1 -1 0 1 2 2 2 0 -0 -2 -1 1 -1 -0 1 -1 0 -0 -1 -1 -2 -1 1 0 -0 1 1 3 -4
-2 -3 -4 -2 -1 -2 -3 -1 -1 -1 -0 0 1 1 1 1 2 2 2 2 2 2 3 2 2 1 3 1 5 3 1 -0 -1 0 1 0 -1 -3 1 1 -1 0 2
-3 -2 -1 2 1 -1 -2 -2 0 1 1 0 -0 -0 -1 -2 -3 -2 -1 -2 -3 -3 -3 -3 -2 -3 -3 -3 -4 -3 3 4 5 1 -2 -2 0 -0 -0 -2 4 -2 2
-0 -1 -1 -1 -3 1 4 3 2 0 -0 -1 -3 -4 -2 1 0 -2 -3 -2 -2 -2 -3 -4 -4 -1 -1 -0 -0 -2 -4 -3 -3 -0 4 2 -0 -2 -2 0 -1 -5 -3
1 -1 1 -2 -0 2 0 -1 -3 -1 -2 -2 0 1 1 1 2 3 2 1 1 -0 -0 1 3 1 -0 -1 0 1 2 2 1 1 -1 2 2 1 2 2 2 4 2
-0 -1 -2 -4 -1 -2 -2 -2 -0 1 1 2 0 -1 1 1 -1 -4 -2 -2 -1 -0 0 0 -2 1 0 -0 -1 -1 -2 -1 -3 -4 -3 -2 -0 2 -1 -2 -1 2 2
-0 2 3 4 4 4 3 0 -2 -2 0 1 0 1 -2 -2 -1 -1 0 -1 -0 -1 0 -1 -1 -2 0 -1 1 -1 -2 -0 2 3 1 -5 -5 -4 -2 -4 -6 2 7
1 1 -0 -0 -0 1 -2 -3 4 5 2 2 1 -1 -3 -2 -2 1 -1 -2 -0 0 -1 1 -2 -3 -2 -3 -3 -5 -3 -3 -5 -3 -3 3 1 -2 -1 -4 -2 -6 -3
-1 1 1 1 2 3 3 3 4 4 1 1 1 -0 0 -2 -1 -1 -2 -2 -3 -1 -3 -3 -1 -2 -3 -1 -2 -1 -2 -3 -4 -3 -2 -2 -5 -3 -2 -2 -2 -1 -3
2 2 2 3 2 3 2 2 -2 -1 1 -1 -1 -1 -1 -0 -2 -3 -2 -2 -4 -1 -0 0 1 -2 -1 -2 -1 -2 -2 -2 -5 -2 -2 -3 -4 -3 -2 -3 -3 -2 -0
2 1 1 -1 -1 -3 -2 -1 1 -3 -1 -2 -4 -1 -1 -1 0 -0 -1 1 -2 -3 -2 -2 1 1 1 2 -1 -2 -3 -4 -5 -4 -2 -2 -1 -2 -3 -1 -1 -3 -2
3 3 4 2 3 0 -1 -2 -4 -4 -3 -1 -2 -2 -1 -3 -2 -2 -2 -1 -1 -1 -4 -3 -0 1 3 2 2 2 2 3 3 -0 -0 -1 -2 -1 -6 -6 -1 -2 -3
-2 -2 1 -0 -3 -2 -2 -2 -3 -3 -1 -3 -2 -2 -3 -3 -2 -4 -2 -1 -3 -2 -1 -3 -3 -4 -1 -1 -4 -8 -7 -7 -7 -9 -4 -3 -1 -1 -1 1 -0 -1 0
-1 -0 -3 -4 -2 -1 1 0 2 2 -0 -2 -2 -4 -4 -3 -2 -0 1 -3 -1 -2 -3 -4 -6 -1 -5 -3 -1 -0 -2 -3 -4 -3 -6 -3 -3 -3 -1 -0 -0 2 -0
Height
3102 3098 3095 3093 3091 3090 3088 3085 3083 3079 3075 3072 3069 3067 3066 3067 3068 3070 3075 3079 3081 3083 3084 3086 3088 3090 3092 3094 3095 3095 3095 3096 3096 3093 3093 3091 3090 3089 3090 3090 3090 3090 3092
3097 3094 3091 3088 3085 3084 3081 3079 3076 3073 3068 3063 3060 3056 3055 3057 3059 3063 3064 3066 3070 3072 3076 3077 3079 3082 3084 3085 3086 3086 3086 3086 3087 3085 3083 3077 3077 3078 3080 3080 3080 3080 3081
3090 3087 3085 3081 3079 3077 3074 3072 3068 3066 3062 3057 3051 3046 3047 3049 3050 3054 3054 3056 3061 3066 3063 3062 3067 3072 3074 3076 3077 3077 3077 3075 3076 3076 3075 3069 3064 3064 3065 3067 3068 3069 3069
3084 3080 3079 3076 3074 3072 3069 3065 3062 3060 3057 3053 3048 3046 3046 3046 3046 3049 3051 3053 3056 3058 3059 3061 3063 3064 3066 3067 3068 3068 3067 3066 3063 3064 3062 3060 3057 3053 3051 3052 3053 3056 3057
3079 3077 3074 3072 3070 3068 3065 3063 3059 3056 3053 3052 3049 3048 3047 3046 3046 3047 3048 3048 3049 3051 3051 3053 3055 3056 3058 3059 3059 3058 3057 3055 3052 3049 3049 3047 3046 3046 3042 3037 3040 3041 3044
3074 3073 3071 3069 3066 3065 3062 3057 3053 3052 3050 3050 3049 3047 3046 3045 3045 3044 3043 3043 3041 3044 3045 3047 3049 3049 3050 3051 3050 3048 3045 3042 3040 3037 3036 3036 3035 3034 3033 3030 3028 3028 3028
3070 3068 3066 3065 3064 3062 3057 3054 3050 3049 3048 3046 3045 3043 3043 3042 3042 3042 3041 3041 3039 3040 3040 3040 3040 3040 3039 3040 3038 3037 3035 3034 3030 3027 3025 3025 3025 3023 3020 3019 3015 3013 3014
3068 3065 3063 3061 3059 3057 3055 3051 3049 3048 3046 3043 3042 3040 3039 3038 3038 3038 3038 3037 3035 3034 3034 3034 3033 3032 3032 3031 3030 3028 3027 3023 3021 3020 3017 3014 3013 3012 3010 3008 3005 2993 3002
3066 3062 3059 3058 3056 3055 3054 3053 3052 3050 3047 3046 3043 3041 3039 3037 3035 3034 3033 3033 3033 3031 3031 3030 3028 3026 3025 3025 3023 3022 3018 3016 3012 3010 3008 3005 3003 3000 2997 2996 2995 2995 2989
3066 3063 3061 3057 3057 3057 3057 3056 3054 3052 3050 3047 3045 3043 3041 3039 3037 3035 3033 3031 3029 3028 3026 3024 3024 3023 3021 3019 3016 3014 3012 3009 3005 3002 2999 2995 2991 2987 2985 2983 2984 2985 2982
3066 3063 3061 3059 3057 3057 3057 3057 3055 3052 3050 3048 3045 3042 3040 3038 3036 3034 3032 3030 3029 3027 3025 3022 3020 3017 3015 3012 3009 3006 3003 3000 2997 2994 2991 2989 2984 2978 2978 2976 2972 2973 2974
3066 3063 3061 3060 3059 3059 3058 3056 3054 3051 3049 3047 3044 3042 3039 3036 3034 3031 3029 3027 3025 3022 3019 3016 3014 3011 3008 3006 3002 2999 2996 2993 2989 2985 2981 2978 2976 2974 2971 2970 2968 2967 2966
3065 3063 3061 3060 3058 3057 3056 3054 3052 3050 3047 3044 3042 3040 3037 3035 3032 3029 3027 3024 3021 3018 3014 3011 3007 3004 3000 2997 2993 2990 2987 2983 2980 2976 2973 2970 2967 2965 2963 2962 2960 2960 2959
3063 3061 3059 3058 3056 3055 3053 3051 3049 3047 3044 3042 3039 3036 3033 3030 3027 3024 3021 3018 3015 3012 3008 3004 3000 2996 2992 2988 2985 2982 2978 2974 2971 2967 2964 2962 2959 2957 2955 2953 2951 2951 2950
3059 3057 3056 3055 3053 3051 3049 3047 3045 3043 3040 3038 3035 3032 3029 3027 3024 3021 3018 3015 3011 3007 3002 2998 2994 2989 2985 2980 2977 2974 2970 2965 2962 2958 2955 2953 2950 2947 2944 2943 2943 2942 2940
3054 3053 3052 3051 3048 3047 3046 3043 3041 3038 3036 3033 3031 3029 3027 3024 3020 3017 3013 3008 3004 3000 2995 2990 2987 2983 2977 2972 2968 2963 2961 2957 2952 2949 2945 2941 2939 2936 2935 2933 2932 2929 2927
3049 3048 3047 3045 3043 3042 3041 3039 3037 3034 3032 3029 3027 3024 3021 3017 3013 3009 3005 3001 2997 2992 2987 2981 2977 2973 2968 2963 2959 2955 2952 2949 2944 2940 2937 2934 2930 2925 2922 2920 2920 2920 2917
3043 3042 3040 3038 3038 3037 3035 3034 3032 3030 3027 3025 3022 3019 3015 3012 3008 3003 2998 2993 2988 2983 2979 2973 2968 2963 2958 2953 2949 2944 2941 2938 2934 2930 2927 2923 2921 2918 2913 2909 2907 2907 2906
3037 3036 3034 3034 3033 3032 3030 3028 3026 3025 3023 3019 3017 3014 3011 3007 3001 2996 2991 2985 2981 2975 2969 2963 2959 2954 2949 2944 2939 2935 2931 2927 2924 2920 2916 2911 2907 2905 2902 2897 2894 2896 2896
3030 3030 3029 3029 3028 3027 3025 3023 3022 3020 3017 3015 3012 3008 3004 2999 2994 2988 2982 2978 2971 2966 2961 2957 2952 2947 2942 2937 2932 2927 2922 2918 2913 2910 2906 2902 2897 2893 2889 2885 2880 2876 2880
3026 3025 3024 3023 3023 3022 3020 3019 3017 3015 3012 3010 3007 3002 2997 2992 2986 2981 2975 2970 2964 2959 2954 2950 2945 2940 2935 2930 2925 2920 2914 2908 2903 2899 2895 2892 2888 2882 2877 2873 2870 2866 2863
3021 3020 3019 3018 3017 3016 3015 3014 3011 3009 3007 3004 3000 2996 2991 2985 2979 2973 2968 2962 2956 2952 2947 2942 2939 2934 2929 2923 2917 2912 2906 2900 2894 2889 2883 2879 2876 2873 2869 2864 2860 2856 2852
3015 3014 3013 3012 3012 3011 3009 3007 3006 3004 3001 2998 2995 2990 2985 2979 2972 2965 2960 2954 2949 2944 2939 2935 2931 2928 2923 2916 2910 2904 2898 2892 2886 2881 2875 2870 2865 2861 2858 2854 2849 2846 2843
3008 3008 3007 3007 3006 3004 3002 3001 3000 2997 2995 2991 2988 2983 2978 2972 2965 2958 2952 2946 2941 2936 2931 2927 2923 2919 2914 2908 2902 2896 2890 2884 2878 2872 2867 2862 2856 2852 2847 2844 2841 2836 2833
3000 3001 3001 3000 2999 2998 2996 2995 2993 2991 2988 2985 2981 2976 2970 2964 2959 2952 2946 2940 2934 2928 2923 2919 2913 2907 2903 2898 2892 2885 2879 2874 2868 2862 2858 2854 2849 2844 2839 2834 2830 2828 2825
2992 2992 2992 2992 2991 2990 2988 2987 2986 2983 2981 2978 2973 2968 2963 2957 2951 2945 2940 2932 2927 2922 2917 2912 2906 2900 2895 2889 2883 2877 2871 2866 2860 2854 2848 2844 2839 2835 2831 2825 2821 2818 2816